Weather History for Orange, MA

Change the Weather History Date:

Saturday, March 23, 2013

  Actual Average Record
Temperature  
Mean Temperature 32 °F -  
Max Temperature 37 °F 42 °F 75 °F (2012)
Min Temperature 26 °F 23 °F 10 °F (2004)
Degree Days  
Heating Degree Days 34    
Moisture  
Dew Point 17 °F    
Average Humidity 55    
Maximum Humidity 75    
Minimum Humidity 41    
Precipitation  
Precipitation 0.00 in - - ()
Sea Level Pressure  
Sea Level Pressure 29.75 in    
Wind  
Wind Speed 10 mph (West)    
Max Wind Speed 21 mph    
Max Gust Speed 33 mph    
Visibility 10 miles    
Events      
Averages and records for this station are not official NWS values.
T = Trace of Precipitation, MM = Missing Value Source: NWS Daily Summary

Daily Weather History Graph

Daily Weather History Graph

Search for Another Location

Airport:

Trip Planner

Search our weather history database for the weather conditions in past years. The results will help you decide how hot, cold, wet, or windy it might be!

Date:

Astronomy

Mar. 23, 2013 Rise Set
Actual Time 6:46 AM EDT 7:05 PM EDT
Civil Twilight 6:18 AM EDT 7:33 PM EDT
Nautical Twilight 5:45 AM EDT 8:06 PM EDT
Astronomical Twilight 5:11 AM EDT 8:40 PM EDT
Moon 3:24 PM EDT (3/23) 4:25 AM EDT (3/23)
Length of Visible Light 13h 14m
Length of Day
12h 18m
Waxing Gibbous, 85% of the Moon is Illuminated
Mar 23
Waxing Gibbous
Mar 27
Full
Apr 3
Last Quarter
Apr 10
New
Apr 18
First Quarter

Hourly Weather History & Observations

Time (EDT) Temp. Windchill Dew Point Humidity Pressure Visibility Wind Dir Wind Speed Gust Speed Precip Events Conditions
12:52 AM 28.0 °F 18.6 °F 17.1 °F 63% 29.77 in 10.0 mi West 10.4 mph - N/A   Partly Cloudy
1:52 AM 27.0 °F 21.6 °F 18.0 °F 69% 29.76 in 10.0 mi West 4.6 mph - N/A   Clear
2:52 AM 26.1 °F 20.5 °F 18.0 °F 71% 29.76 in 10.0 mi South 4.6 mph - N/A   Clear
3:52 AM 26.1 °F - 19.0 °F 75% 29.74 in 10.0 mi Calm Calm - N/A   Overcast
4:52 AM 28.0 °F - 19.9 °F 72% 29.73 in 10.0 mi Calm Calm - N/A   Overcast
5:52 AM 28.9 °F 21.1 °F 19.9 °F 69% 29.73 in 10.0 mi West 8.1 mph - N/A   Mostly Cloudy
6:52 AM 28.9 °F 20.4 °F 19.9 °F 69% 29.73 in 10.0 mi WSW 9.2 mph 16.1 mph N/A   Clear
7:52 AM 30.0 °F 23.2 °F 19.9 °F 66% 29.73 in 10.0 mi West 6.9 mph - N/A   Clear
8:52 AM 32.0 °F 22.1 °F 19.0 °F 59% 29.74 in 10.0 mi West 13.8 mph 21.9 mph N/A   Mostly Cloudy
9:52 AM 33.1 °F 22.2 °F 19.0 °F 56% 29.74 in 9.0 mi WNW 17.3 mph 25.3 mph 0.00 in   Overcast
10:52 AM 33.1 °F 22.2 °F 17.1 °F 52% 29.73 in 10.0 mi West 17.3 mph 24.2 mph N/A   Overcast
11:52 AM 36.0 °F 25.0 °F 16.0 °F 44% 29.72 in 10.0 mi WNW 20.7 mph 28.8 mph N/A   Mostly Cloudy
12:52 PM 37.0 °F 27.7 °F 15.1 °F 41% 29.70 in 10.0 mi WNW 16.1 mph 33.4 mph N/A   Overcast
1:52 PM 37.0 °F 27.4 °F 16.0 °F 42% 29.70 in 10.0 mi West 17.3 mph 27.6 mph N/A   Overcast
3:52 PM 37.0 °F 26.4 °F 17.1 °F 44% 29.70 in 10.0 mi West 20.7 mph 27.6 mph N/A   Mostly Cloudy
4:52 PM 37.0 °F 27.7 °F 16.0 °F 42% 29.72 in 10.0 mi WNW 16.1 mph 29.9 mph N/A   Overcast
5:52 PM 37.9 °F 28.5 °F 16.0 °F 41% 29.73 in 10.0 mi WNW 17.3 mph 27.6 mph N/A   Overcast
6:52 PM 37.0 °F 29.3 °F 16.0 °F 42% 29.76 in 10.0 mi WNW 11.5 mph 20.7 mph N/A   Overcast
7:52 PM 35.1 °F 26.4 °F 17.1 °F 48% 29.78 in 10.0 mi NNW 12.7 mph - N/A   Mostly Cloudy
8:52 PM 34.0 °F 25.5 °F 16.0 °F 48% 29.81 in 10.0 mi WNW 11.5 mph 17.3 mph N/A   Scattered Clouds
9:52 PM 33.1 °F 27.7 °F 17.1 °F 52% 29.82 in 10.0 mi West 5.8 mph - N/A   Overcast
10:52 PM 32.0 °F 27.5 °F 16.0 °F 52% 29.81 in 10.0 mi West 4.6 mph - N/A   Mostly Cloudy
11:52 PM 32.0 °F 28.7 °F 17.1 °F 54% 29.82 in 10.0 mi WNW 3.5 mph - N/A   Overcast